Location: Hoyos del Collado
(40.3594°N, 5.2003°W)
Time: 02:01:51
(UTC+00:00)

Cosmos 1459 Rocket - Pass Details

Date: 18 April 2024
Orbit: 936 x 998 km, 83.0° (Epoch: 25 May)

Event Time Altitude Azimuth Distance (km) Brightness Sun altitude
Rises 22:29:17 0° 352° (N) 3,607 7.9 -32.4°
Reaches altitude 10° 22:31:46 10° 353° (N) 2,663 7.0 -32.6°
Enters shadow 22:36:39 60° 352° (N) 1,074 4.3 -33.1°
